OpenBCM V2.0.2 (Linux)

Packet Radio Mailbox

IZ3LSV

[San Dona' di P. JN]

 Login: GUEST





  
CX2SA  > KEP      08.04.20 01:26l 94 Lines 3938 Bytes #999 (0) @ ARL
BID : ARLK028
Read: GUEST
Subj: ARLK028 Keplerian data
Path: IZ3LSV<I0OJJ<I0OJJ<N6RME<CX2SA
Sent: 200407/2317Z @:CX2SA.SAL.URY.SOAM #:28216 [Salto] FBB7.00e $:ARLK028

>From cx2sa%cx2sa.sal.ury.soam@i0ojj.ampr.org Wed Apr  8 01:23:13 2020
Received: from i0ojj.ampr.org by i0ojj.ampr.org (JNOS2.0n.beta1) with SMTP
	id AA105892 ; Wed, 08 Apr 2020 01:23:13 +0200
Message-Id: <ARLK028@i0ojj.bbs>
>From: cx2sa@cx2sa.sal.ury.soam
X-JNOS-User-Port: Telnet   (i0ojj @ 44.134.32.240)  -> Sending message

From: CX2SA@CX2SA.SAL.URY.SOAM
To  : KEP@ARL


ZCZC SK28
QST de W1AW
Keplerian Bulletin 28  ARLK028
>From ARRL Headquarters
Newington, CT  April 7, 2020
To all radio amateurs

SB KEP ARL ARLK028
ARLK028 Keplerian data

Special thanks to AMSAT-NA (AMSAT.ORG) for the following Keplerian
data.

Decode 2-line elsets with the following key:
1 AAAAAU 00  0  0 BBBBB.BBBBBBBB  .CCCCCCCC  00000-0  00000-0 0  DDDZ
2 AAAAA EEE.EEEE FFF.FFFF GGGGGGG HHH.HHHH III.IIII JJ.JJJJJJJJKKKKKZ
KEY: A-CATALOGNUM B-EPOCHTIME C-DECAY D-ELSETNUM E-INCLINATION F-RAAN
G-ECCENTRICITY H-ARGPERIGEE I-MNANOM J-MNMOTION K-ORBITNUM Z-CHECKSUM

0 AO-07
1 7530U 74089B   20098.54802910 -.00000052 +00000-0 -41359-4 0  9996
2 7530 101.7929 068.7058 0012377 139.1122 338.5097 12.53642901077102
0 FO-29
1 24278U 96046B   20098.40346904 -.00000013 +00000-0 +23625-4 0  9994
2 24278 098.5732 217.5753 0350121 198.6884 160.1128 13.53097118167275
0 ISS
1 25544U 98067A   20098.85791369  .00001274  00000-0  31613-4 0  9999
2 25544  51.6448 336.4916 0003912  95.9530   6.4493 15.48690560221115
0 SO-50
1 27607U 02058C   20098.61486980 -.00000005 +00000-0 +19969-4 0  9992
2 27607 064.5550 230.9507 0056864 195.6364 164.2985 14.75622730930271
0 CO-55
1 27844U 03031E   20098.58824810 +.00000051 +00000-0 +42827-4 0  9990
2 27844 098.6843 107.3864 0008689 259.3682 100.6517 14.22230048870023
0 RS-22
1 27939U 03042A   20098.51220152  .00000103  00000-0  27033-4 0  9999
2 27939  98.0767 234.3209 0012300 212.5105 147.5344 14.66849261883615
0 RS-30
1 32953U 08025A   20098.49084266  .00000037  00000-0  19437-3 0  9992
2 32953  82.5041 322.0525 0018549 207.1430 152.8681 12.43094933538811
0 KKS-1
1 33499U 09002H   20098.58612936 +.00000088 +00000-0 +20963-4 0  9998
2 33499 098.3261 311.3095 0009055 359.2507 000.8686 14.75518260602130
0 AO-71
1 37854U 11061E   20098.13411825  .00000529  00000-0  34841-4 0  9990
2 37854 101.7043 152.5990 0158603 273.8521  84.4572 15.07115389461187
0 AO-73
1 39444U 13066AE  20098.54204610  .00000234  00000-0  34842-4 0  9995
2 39444  97.5599 102.7031 0058962 141.7693 218.7724 14.82091200343452
0 UKUBE 1
1 40074U 14037F   20098.51375956  .00000343  00000-0  48224-4 0  9994
2 40074  98.4541 282.6251 0004457   3.6502 356.4740 14.84226680311230
0 XW-2A
1 40903U 15049E   20098.62741984 +.00001987 +00000-0 +47199-4 0  9994
2 40903 097.2969 147.5045 0014000 153.4511 326.8126 15.42830925255550
0 XW-2F
1 40910U 15049M   20098.56646079 +.00000949 +00000-0 +50234-4 0  9995
2 40910 097.4686 103.1287 0013043 245.2361 232.1612 15.17812149251589
0 XW-2B
1 40911U 15049N   20098.54707549 +.00000873 +00000-0 +48660-4 0  9990
2 40911 097.4766 101.3334 0012277 256.8162 221.6668 15.16145720251427
0 IO-86
1 40931U 15052B   20098.49757029  .00000565  00000-0 -10514-4 0  9994
2 40931   5.9967 121.4661 0013773 353.6667   6.3352 14.76630063244750
0 CAS-4B
1 42759U 17034B   20098.37587581  .00000203  00000-0  25812-4 0  9992
2 42759  43.0184  57.5626 0012552 302.3441 194.8834 15.09781242155223
0 CAS-4A
1 42761U 17034D   20098.59443044 +.00000207 +00000-0 +26051-4 0  9994
2 42761 043.0192 055.7091 0012913 303.4805 226.0470 15.09859633155255
0 AO-91
1 43017U 17073E   20098.48212364 +.00000426 +00000-0 +39282-4 0  9992
2 43017 097.7253 013.4491 0255745 281.6926 075.5693 14.78872788128673
0 AO-92
1 43137U 18004AC  20098.44398990 +.00000906 +00000-0 +40381-4 0  9991
2 43137 097.4510 170.0720 0007827 312.2587 047.7986 15.23984865124239

Keplerian bulletins are transmitted twice weekly from W1AW.  The
next scheduled transmission of these data will be Friday, April 10,
2020, at 2230z on Baudot and BPSK31.
NNNN



Read previous mail | Read next mail


 03.05.2026 01:05:32lGo back Go up